Location: The Saddle
(36.8333°N, 80.3417°W)
Time: 11:36:53
(UTC-05:00)

A-11 Canister half - Pass Details

Date: 16 December 2023
Orbit: 1512 x 1687 km, 47.2° (Epoch: 22 February)

Event Time Altitude Azimuth Distance (km) Brightness Sun altitude
Rises 00:42:04 0° 286° (WNW) 4,721 - -75.4°
Reaches altitude 10° 00:45:19 10° 293° (WNW) 3,760 - -75.1°
Maximum altitude 00:54:25 46° 5° (N) 2,063 - -74.2°
Drops below altitude 10° 01:03:52 10° 77° (ENE) 3,892 - -73.1°
Sets 01:07:17 0° 83° (E) 4,898 - -72.6°
